Regional Weather Roundup
Issued by NWS

Home | Current Version | Previous Version | Graphics & Text | Print | Product List | Glossary On
Versions: 1 2 3 4 5 6 7 8 9 10 11 12 13 14 15 16 17 18 19 20 21 22 23 24 25 26 27 28 29 30 31 32 33 34 35 36 37 38 39 40 41 42 43 44 45 46 47 48 49 50
000
ASUS43 KBIS 201102
RWRND

NORTH DAKOTA REGIONAL WEATHER ROUNDUP
NATIONAL WEATHER SERVICE BISMARCK ND
500 AM CST SAT JAN 20 2018

NOTE: "FAIR" INDICATES FEW OR NO CLOUDS BELOW 12,000 FEET WITH NO
SIGNIFICANT WEATHER AND/OR OBSTRUCTIONS TO VISIBILITY.


NDZ001>003-009>011-017-201200-
NORTHWEST NORTH DAKOTA

CITY           SKY/WX    TMP DP  RH WIND       PRES   REMARKS
WILLISTON      MOCLDY    30  23  75 SW12      29.75R
MINOT          CLOUDY    30  24  78 SW9       29.71S
MINOT AFB      CLOUDY    29  24  81 W6        29.69F
$$

NDZ018>021-031>035-040>046-201200-
SOUTHWEST NORTH DAKOTA

CITY           SKY/WX    TMP DP  RH WIND       PRES   REMARKS
BISMARCK       MOCLDY    33  30  88 CALM      29.78S
DICKINSON      CLOUDY    33  30  88 W9        29.77R
GARRISON         N/A     28  25  88 W12       29.74R WCI  18
HETTINGER ARPT CLOUDY    33  31  92 W7        29.82R
$$

NDZ004>008-012>016-024-026-027-054-201200-
NORTHEAST NORTH DAKOTA

CITY           SKY/WX    TMP DP  RH WIND       PRES   REMARKS
GRAND FORKS    FAIR      31  26  82 W9        29.72R
GRND FRKS AFB  FAIR      31  25  79 NW10      29.71R
DEVILS LAKE    FAIR      26  22  84 W8        29.72S WCI  18
$$

NDZ022-023-025-028>030-036>039-047>053-201200-
SOUTHEAST NORTH DAKOTA

CITY           SKY/WX    TMP DP  RH WIND       PRES   REMARKS
FARGO          CLOUDY    24  22  91 S10       29.75R WCI  14
JAMESTOWN      CLOUDY    31  26  82 W10       29.74R
$$





USA.gov is the U.S. government's official web portal to all federal, state and local government web resources and services.